Home > Weather > Huntsville > Past weeks

Flag for USA Weather for the Past 2 Weeks in Huntsville, Alabama, USA

Now
52 °F

Sunny.


Feels Like: 52 °F
Forecast: 49 / 71 °F
Wind: No wind

Location: Huntsville International / Jones Field

Current Time: May 4, 2016 at 7:40:35 AM

Latest Report: May 4, 2016 at 6:53 AM


Visibility: 10 mi

Pressure: 29.88 "Hg

Humidity: 86%

Dew Point: 48 °F

Location of HuntsvilleLocation

Historic Weather in Huntsville — Graph

°F

Huntsville Temperature Yesterday

Maximum temperature yesterday: 73 °F (at 2:53 PM)
Minimum temperature yesterday: 58 °F (at 11:53 PM)
Average temperature yesterday: 65 °F

High & Low Weather Summary for the Past Weeks

 TemperatureHumidityPressure
High86 °F (Apr 26, 1:53 PM)97% (Apr 29, 6:53 PM)30.24 "Hg (Apr 29, 6:53 PM)
Low51 °F (Apr 24, 5:53 AM)26% (Apr 19, 1:53 PM)29.75 "Hg (Apr 27, 5:53 PM)
Average69 °F65%29.95 "Hg
* Reported Apr 19 5:53 AM — May 4 5:53 AM, Huntsville, Weather by CustomWeather, © 2016

Note: Actual official high and low records may vary slightly from our data, if they occured in-between our weather recording intervals... More about our weather records

Advertising

Huntsville Weather History for the Previous 24 Hours

Scroll right to see more
 ConditionsComfort  
Time TempWeatherWind HumidityBarometerVisibility
5:53 AM
Wed, May 4
51 °FClear.No wind86%29.88 "Hg10 mi
4:53 AM51 °FClear.3 mph86%29.88 "Hg10 mi
3:53 AM51 °FClear.3 mph86%29.88 "Hg10 mi
2:53 AM52 °FClear.3 mph86%29.88 "Hg10 mi
1:53 AM53 °FClear.5 mph83%29.89 "Hg10 mi
12:53 AM55 °FClear.5 mph77%29.91 "Hg10 mi
11:53 PM
Tue, May 3
58 °FPassing clouds.7 mph72%29.91 "Hg10 mi
10:53 PM60 °FOvercast.7 mph69%29.91 "Hg10 mi
9:53 PM61 °FPassing clouds.6 mph65%29.92 "Hg10 mi
8:53 PM62 °FPassing clouds.7 mph62%29.91 "Hg10 mi
7:53 PM64 °FBroken clouds.10 mph58%29.89 "Hg10 mi
6:53 PM65 °FScattered clouds.6 mph56%29.88 "Hg10 mi
5:53 PM68 °FScattered clouds.8 mph51%29.88 "Hg10 mi
4:53 PM70 °FScattered clouds.12 mph47%29.88 "Hg10 mi
3:53 PM70 °FBroken clouds.10 mph51%29.88 "Hg10 mi
2:53 PM73 °FScattered clouds.10 mph46%29.89 "Hg10 mi
1:53 PM71 °FPartly sunny.12 mph53%29.91 "Hg10 mi
12:53 PM69 °FScattered clouds.10 mph57%29.93 "Hg10 mi
11:53 AM69 °FScattered clouds.15 mph59%29.95 "Hg10 mi
10:53 AM68 °FPartly sunny.8 mph61%29.96 "Hg10 mi
9:53 AM66 °FPartly sunny.6 mph68%29.96 "Hg10 mi
8:53 AM64 °FPartly sunny.6 mph73%29.95 "Hg10 mi
7:53 AM63 °FScattered clouds.8 mph73%29.93 "Hg10 mi
Weather by CustomWeather, © 2016

See weather overviewHow to use our weather pages